{"data":{"norad_id":67624,"intl_designator":"2026-020H","name":"STARLINK-36439","alt_names":[],"object_type":"PAYLOAD","status":"ACTIVE","operator":null,"country":"US","launch_date":"2026-01-30","launch_site_code":"AFETR","launch_vehicle":null,"mission":null,"orbit_class":"UNKNOWN","rcs_meters":null,"size_class":null,"mass_kg":null,"dimensions":null,"purposes":["comms"],"wikipedia_slug":null,"has_3d_model":false,"image_url":null,"decayed_at":null,"tle_current":{"epoch":"2026-09-19T21:12:12.294432Z","epoch_age_seconds":123018,"freshness":"FRESH","line1":"1 67624U 26020H   26262.88347563  .00014410  00000+0  53198-3 0  9995","line2":"2 67624  43.0025 123.0274 0001772 268.4394  91.6254 15.27591085 35810","mean_motion":15.27591085,"eccentricity":0.0001772,"inclination_deg":43.0025,"raan_deg":123.0274,"arg_perigee_deg":268.4394,"mean_anomaly_deg":91.6254,"bstar":0.00053198,"rev_number":3581,"period_min":94.266064664812,"perigee_km":481.80010746802,"apogee_km":484.23170005711,"semimajor_km":6861.1529037626,"source":"CELESTRAK","updated_at":"2026-09-20T09:00:43.612116Z"}}}